Kenosha, WI

5:43 PM CDT on August 21, 2017 (GMT -0500)
Kenosha Regional

Weather History for KENW - January, 2014

Change the Weather History Date:

Wednesday, January 1, 2014

  Actual Average Record
Temperature  
Mean Temperature 12 °F -  
Max Temperature 19 °F 28 °F 46 °F (1950)
Min Temperature 6 °F 13 °F -12 °F (1968)
Degree Days  
Heating Degree Days 52    
Moisture  
Dew Point 8 °F    
Average Humidity 76    
Maximum Humidity 84    
Minimum Humidity 65    
Precipitation  
Precipitation 0.05 in - - ()
Sea Level Pressure  
Sea Level Pressure 30.29 in    
Wind  
Wind Speed 12 mph (NNE)    
Max Wind Speed 21 mph    
Max Gust Speed 25 mph    
Visibility 2 miles    
Events Fog , Snow    
Averages and records for this station are not official NWS values.
T = Trace of Precipitation, MM = Missing Value Source: NWS Daily Summary

Daily Weather History Graph

Daily Weather History Graph

Search for Another Location

Airport or City:

Trip Planner

Search our weather history database for the weather conditions in past years. The results will help you decide how hot, cold, wet, or windy it might be!

Date:

Astronomy

Jan. 01, 2014 Rise Set
Actual Time 7:21 AM CST 4:29 PM CST
Civil Twilight 6:49 AM CST 5:01 PM CST
Nautical Twilight 6:14 AM CST 5:36 PM CST
Astronomical Twilight 5:40 AM CST 6:10 PM CST
Moon 7:10 AM CST (1/1) 5:15 PM CST (1/1)
Length of Visible Light 10h 11m
Length of Day
9h 07m
New Moon, 0% of the Moon is Illuminated
Jan 1
New Moon
Jan 7
First Quarter
Jan 15
Full
Jan 23
Last Quarter
Jan 30
New

Hourly Weather History & Observations

Time (CST) Temp. Windchill Dew Point Humidity Pressure Visibility Wind Dir Wind Speed Gust Speed Precip Events Conditions
12:26 AM 9.0 °F -3.2 °F 1.9 °F 73% 30.30 in 2.5 mi North 8.1 mph - 0.00 in Snow Light Snow
12:43 AM 9.0 °F -4.2 °F 1.9 °F 73% 30.29 in 3.0 mi North 9.2 mph - 0.00 in Snow Light Snow
12:53 AM 9.0 °F -4.2 °F 1.9 °F 73% 30.34 in 5.0 mi North 9.2 mph - 0.00 in Snow Light Snow
1:39 AM 9.0 °F -4.2 °F 1.9 °F 73% 30.29 in 2.0 mi North 9.2 mph - 0.00 in Snow Light Snow
1:53 AM 9.0 °F -4.2 °F 1.9 °F 73% 30.34 in 4.0 mi North 9.2 mph - 0.00 in Snow Light Snow
2:53 AM 8.1 °F -5.3 °F 1.9 °F 76% 30.34 in 4.0 mi North 9.2 mph - 0.00 in   Haze
3:30 AM 7.0 °F -7.5 °F 1.0 °F 77% 30.28 in 3.0 mi North 10.4 mph - 0.00 in Snow Light Snow
3:37 AM 7.0 °F -6.6 °F 1.9 °F 80% 30.28 in 2.0 mi North 9.2 mph - 0.00 in Snow Light Snow
3:49 AM 6.8 °F -5.9 °F 1.4 °F 79% 30.28 in 1.5 mi North 8.1 mph - 0.00 in Snow Light Snow
3:53 AM 7.0 °F -7.5 °F 1.9 °F 80% 30.34 in 1.5 mi NNW 10.4 mph - 0.00 in Snow Light Snow
4:53 AM 7.0 °F -6.6 °F 1.9 °F 80% 30.34 in 1.2 mi North 9.2 mph - 0.00 in Snow Light Snow
5:25 AM 8.1 °F -5.3 °F 3.0 °F 80% 30.29 in 2.0 mi North 9.2 mph - 0.01 in Snow Light Snow
5:53 AM 8.1 °F -7.0 °F 3.0 °F 80% 30.33 in 3.0 mi North 11.5 mph - 0.01 in   Haze
6:02 AM 8.1 °F -5.3 °F 3.0 °F 80% 30.28 in 3.0 mi North 9.2 mph - N/A   Haze
6:34 AM 9.0 °F -6.6 °F 3.9 °F 80% 30.27 in 1.8 mi North 12.7 mph - 0.00 in Snow Light Snow
6:49 AM 8.6 °F -5.5 °F 3.2 °F 79% 30.27 in 1.0 mi North 10.4 mph - 0.00 in Snow Light Snow
6:53 AM 9.0 °F -4.2 °F 3.9 °F 80% 30.32 in 1.0 mi North 9.2 mph - 0.00 in Snow Light Snow
7:23 AM 10.0 °F -2.9 °F 6.1 °F 84% 30.27 in 0.8 mi North 9.2 mph - 0.00 in Snow Light Snow
7:41 AM 10.9 °F -0.8 °F 6.1 °F 81% 30.28 in 0.8 mi North 8.1 mph - 0.00 in Snow Light Snow
7:53 AM 10.9 °F -1.8 °F 6.1 °F 81% 30.34 in 0.5 mi North 9.2 mph - 0.00 in Snow Snow
8:06 AM 10.9 °F -2.6 °F 6.1 °F 81% 30.29 in 0.8 mi North 10.4 mph - 0.01 in Snow Light Snow
8:34 AM 12.0 °F 1.5 °F 8.1 °F 84% 30.30 in 0.5 mi North 6.9 mph - 0.01 in Fog , Snow Snow
8:53 AM 17.1 °F 3.0 °F 12.0 °F 81% 30.35 in 0.5 mi ENE 13.8 mph 17.3 mph 0.01 in Snow Snow
9:11 AM 19.9 °F 5.7 °F 14.0 °F 78% 30.30 in 0.5 mi ENE 16.1 mph - 0.01 in Snow Snow
9:12 AM 19.9 °F 5.7 °F 14.0 °F 78% 30.30 in 0.8 mi East 16.1 mph - 0.01 in Snow Light Snow
9:53 AM 19.9 °F 4.8 °F 14.0 °F 78% 30.35 in 1.0 mi East 18.4 mph - 0.01 in Snow Light Snow
10:34 AM 19.9 °F 4.8 °F 12.9 °F 74% 30.30 in 2.5 mi ENE 18.4 mph - 0.00 in Snow Light Snow
10:36 AM 19.9 °F 3.9 °F 12.9 °F 74% 30.30 in 2.5 mi East 20.7 mph - 0.00 in Snow Light Snow
10:53 AM 19.9 °F 3.9 °F 12.0 °F 71% 30.34 in 2.5 mi ENE 20.7 mph - 0.01 in Snow Light Snow
11:16 AM 19.0 °F 3.2 °F 12.9 °F 77% 30.29 in 0.5 mi ENE 19.6 mph 25.3 mph 0.00 in Snow Snow
11:53 AM 19.0 °F 5.0 °F 14.0 °F 81% 30.32 in 0.5 mi ENE 15.0 mph - 0.00 in Snow Snow
12:53 PM 18.0 °F 2.2 °F 12.0 °F 78% 30.31 in 0.5 mi ENE 18.4 mph - 0.00 in Snow Snow
12:57 PM 18.0 °F 3.6 °F 12.0 °F 78% 30.26 in 0.2 mi ENE 15.0 mph - 0.00 in Snow Heavy Snow
1:00 PM 18.0 °F 3.1 °F 12.0 °F 78% 30.26 in 0.2 mi ENE 16.1 mph - 0.00 in Snow Heavy Snow
1:42 PM 18.0 °F 2.2 °F 12.0 °F 78% 30.25 in 0.5 mi ENE 18.4 mph - 0.01 in Snow Snow
1:53 PM 18.0 °F 3.1 °F 12.9 °F 81% 30.30 in 0.2 mi ENE 16.1 mph - 0.01 in Snow Heavy Snow
2:04 PM 18.0 °F 2.6 °F 12.0 °F 78% 30.25 in 0.5 mi ENE 17.3 mph - 0.00 in Snow Snow
2:53 PM 18.0 °F 4.2 °F 12.9 °F 81% 30.29 in 0.5 mi NE 13.8 mph - 0.00 in Snow Snow
3:53 PM 18.0 °F 3.6 °F 12.0 °F 78% 30.29 in 0.5 mi NE 15.0 mph - 0.00 in Snow Snow
4:53 PM 19.0 °F 5.6 °F 10.0 °F 68% 30.29 in 2.5 mi NE 13.8 mph - 0.00 in Snow Light Snow
5:14 PM 19.0 °F 5.0 °F 10.0 °F 68% 30.24 in 1.8 mi NE 15.0 mph - 0.00 in Snow Light Snow
5:53 PM 19.0 °F 4.5 °F 10.0 °F 68% 30.29 in 6.0 mi NE 16.1 mph - 0.00 in   Haze
6:53 PM 19.9 °F 5.2 °F 10.0 °F 65% 30.29 in 7.0 mi NE 17.3 mph - 0.00 in Snow Light Snow
7:53 PM 19.9 °F 6.7 °F 10.9 °F 68% 30.28 in 4.0 mi NE 13.8 mph - 0.00 in Snow Light Snow
8:53 PM 19.9 °F 6.2 °F 10.9 °F 68% 30.27 in 4.0 mi NE 15.0 mph - 0.00 in Snow Light Snow
9:53 PM 19.9 °F 5.7 °F 10.9 °F 68% 30.27 in 5.0 mi NE 16.1 mph - 0.00 in Snow Light Snow
10:41 PM 19.0 °F 6.1 °F 12.0 °F 74% 30.21 in 2.5 mi NE 12.7 mph - 0.00 in Snow Light Snow
10:53 PM 19.9 °F 7.3 °F 12.0 °F 71% 30.25 in 2.5 mi NE 12.7 mph - 0.00 in Snow Light Snow
11:12 PM 19.0 °F 6.8 °F 12.9 °F 77% 30.21 in 1.2 mi NNE 11.5 mph - 0.00 in Snow Light Snow
11:45 PM 19.9 °F 8.6 °F 14.0 °F 78% 30.20 in 2.0 mi NE 10.4 mph - 0.00 in Snow Light Snow
11:53 PM 19.9 °F 7.9 °F 14.0 °F 78% 30.23 in 2.0 mi NE 11.5 mph - 0.00 in Snow Light Snow